Location: Mexico
(19.4000°N, 99.1500°W)
Time: 09:43:29
(UTC-06:00)

ISS - Pass Details

Date: 17 January 2018
Orbit: 402 x 407 km, 51.6° (Epoch: 23 January)

Event Time Altitude Azimuth Distance (km) Brightness Sun altitude
Exits shadow 06:03:05 - 1° (N) 1,647 -0.9 -16.5°
Reaches altitude 10° 06:03:49 10° 10° (N) 1,456 -1.1 -16.4°
Maximum altitude 06:05:43 14° 46° (NE) 1,216 -1.1 -15.9°
Drops below altitude 10° 06:07:37 10° 81° (E) 1,456 0.0 -15.5°
Sets 06:10:23 0° 107° (ESE) 2,315 2.0 -14.9°
